{"data":{"norad_id":58790,"epoch":"2026-05-25T03:19:34.894848Z","epoch_age_seconds":69918,"freshness":"FRESH","line1":"1 58790U 24012D   26145.13859832  .00000000  00000+0  95157-5 0  9996","line2":"2 58790  43.0012  93.8692 0000918 267.6042  92.4705 15.27616857132925","mean_motion":15.27616857,"eccentricity":9.18e-5,"inclination_deg":43.0012,"raan_deg":93.8692,"arg_perigee_deg":267.6042,"mean_anomaly_deg":92.4705,"bstar":9.5157e-6,"rev_number":13292,"period_min":94.264474328199,"perigee_km":482.30888838889,"apogee_km":483.56858189386,"semimajor_km":6861.0757351414,"source":"CELESTRAK","updated_at":"2026-05-25T13:38:18.748958Z"}}